Location: Pulvis Stellarum Observatory
(41.6962°N, 71.4263°W)
Time: 15:16:11
(UTC-04:00)

Cosmos 1758 - Visible Passes

Search period start: 20 June 2018 00:00
Search period end: 30 June 2018 00:00
Orbit: 542 x 563 km, 82.5° (Epoch: 19 June)

Date Brightness Start Highest point End Pass type
(mag) Time Alt. Az. Time Alt. Az. Time Alt. Az.
20 Jun 6.1 21:35:55 10° NW 21:38:21 15° W 21:40:45 10° WSW visible
21 Jun 6.2 21:32:38 10° NW 21:34:44 14° W 21:36:49 10° WSW visible
22 Jun 6.3 21:29:25 10° WNW 21:31:06 12° W 21:32:47 10° WSW visible
23 Jun 6.5 21:26:22 10° WNW 21:27:29 11° W 21:28:35 10° W visible
